Location: Brantley
(31.5822°N, 86.2569°W)
Time: 00:23:10
(UTC+00:00)

Vanguard 2 - Pass Details

Date: 19 February 2026
Orbit: 553 x 2896 km, 32.9° (Epoch: 9 March)

Event Time Altitude Azimuth Distance (km) Brightness Sun altitude
Rises 12:45:12 0° 269° (W) 3,492 10.3 3.8°
Reaches altitude 10° 12:48:09 10° 271° (W) 2,290 9.4 4.4°
Maximum altitude 12:53:08 75° 356° (N) 631 7.2 5.4°
Drops below altitude 10° 12:57:06 10° 83° (E) 1,827 10.9 6.2°
Sets 12:59:13 0° 85° (E) 2,718 11.9 6.7°
